Observations
| Time | Sensor | AQI | SAQ | Temp °C | Hum % | Pres Pa | CO μg/m³ | H₂S μg/m³ | NO μg/m³ | NO₂ μg/m³ | O₃ μg/m³ | SO₂ μg/m³ | CO₂e PPM | VOC PPM | PM1 μg/m³ | PM2.5 μg/m³ | PM4 μg/m³ | PM10 μg/m³ | TPS µm |
|---|---|---|---|---|---|---|---|---|---|---|---|---|---|---|---|---|---|---|---|
| Thursday 13 August 2026 | |||||||||||||||||||
| 10:35 | Trim Patrick St | 1 | 29.8 | 52 | 69,928 | 0 | 0 | 0.77 | 13.31 | 55.79 | 14.51 | 2.86 | 7.84 | 8.62 | |||||
| 10:34 | Trim Patrick St | 1 | 29.8 | 52 | 69,940 | 0 | 0 | 0.78 | 13.11 | 55.16 | 14.07 | 2 | 7.07 | 7.77 | |||||
| 10:33 | Trim Patrick St | 1 | 29.8 | 52 | 69,990 | 0 | 0 | 0.77 | 13.47 | 58.04 | 14.42 | 2.86 | 7.07 | 7.77 | |||||
| 10:32 | Trim Patrick St | 1 | 29.8 | 52 | 70,054 | 0 | 0 | 0.83 | 13.21 | 57.97 | 14.64 | 2 | 7.07 | 7.78 | |||||
| 10:31 | Trim Market St | 2 | 29.1 | 56 | 57,688 | 0.17 | 0 | 1.13 | 22.27 | 51.74 | 0 | 1.43 | 3.72 | 4.69 | |||||
| 10:29 | Trim Patrick St | 1 | 29.6 | 53 | 70,313 | 0 | 0 | 0.89 | 13.42 | 37.73 | 14.04 | 2.86 | 7.74 | 8.51 | |||||
| 10:28 | Trim Patrick St | 1 | 29.5 | 53 | 70,449 | 0 | 0 | 0.92 | 13.47 | 56.71 | 14.04 | 2.86 | 6.97 | 7.66 | |||||
| 10:28 | Trim Market St | 2 | 28.7 | 56 | 57,725 | 0 | 0 | 0.81 | 14.04 | 53.48 | 0 | 0.71 | 2.69 | 3.28 | |||||
| 10:27 | Trim Patrick St | 1 | 29.4 | 53 | 70,568 | 0 | 0 | 0.84 | 13.82 | 57.83 | 14.11 | 2.86 | 7.72 | 8.49 | |||||
| 10:26 | Trim Patrick St | 1 | 29.3 | 54 | 70,722 | 0 | 0 | 0.82 | 13.66 | 59.02 | 14.06 | 2.86 | 6.95 | 7.64 | |||||
| 10:25 | Trim Patrick St | 1 | 29.2 | 54 | 70,867 | 0 | 0 | 0.78 | 13.66 | 57.62 | 13.88 | 2.86 | 7.7 | 8.47 | |||||
| 10:23 | Trim Patrick St | 1 | 29 | 54 | 71,142 | 0 | 1.95 | 0.77 | 13.77 | 58.24 | 14.34 | 2 | 6.9 | 7.59 | |||||
| 10:23 | Trim Market St | 2 | 28.2 | 57 | 57,718 | 0 | 1.2 | 0.79 | 22.84 | 64.39 | 0 | 2.14 | 4.69 | 6.12 | |||||
| 10:22 | Trim Market St | 2 | 28.2 | 56 | 57,722 | 0 | 0 | 0.79 | 13.71 | 54.45 | 0 | 1.43 | 4.2 | 5.41 | |||||
| 10:21 | Trim Market St | 2 | 28.1 | 56 | 57,722 | 0 | 0 | 0.67 | 14.04 | 59.37 | 0 | 0.71 | 3.19 | 4.7 | |||||
| 10:20 | Trim Market St | 2 | 28.1 | 56 | 57,724 | 0 | 0 | 0.65 | 13.52 | 57.49 | 0 | 1.43 | 3.7 | 4.7 | |||||
| 10:20 | Trim Patrick St | 1 | 28.8 | 54 | 71,332 | 0 | 1.11 | 0.81 | 13.69 | 57.53 | 13.56 | 4.57 | 8.4 | 9.25 | |||||
| 10:19 | Trim Market St | 2 | 28.1 | 56 | 57,726 | 0 | 0 | 0.65 | 13.55 | 56.53 | 0 | 1.43 | 4.2 | 5.41 | |||||
| 10:19 | Trim Patrick St | 1 | 28.8 | 54 | 71,344 | 0 | 1.05 | 0.81 | 13.52 | 58.95 | 13.79 | 3.71 | 8.4 | 9.24 | |||||
| 10:18 | Trim Market St | 2 | 28 | 56 | 57,725 | 0 | 0 | 0.67 | 13.55 | 53.81 | 0 | 1.43 | 4.2 | 5.41 | |||||